Regional Weather Roundup
Issued by NWS

Home | Current Version | Previous Version | Text Only | Print | Product List | Glossary Off
Versions: 1 2 3 4 5 6 7 8 9 10 11 12 13 14 15 16 17 18 19 20 21 22 23 24 25 26 27 28 29 30 31 32 33 34 35 36 37 38 39 40 41 42 43 44 45 46 47 48 49 50

000
ASUS43 KLOT 181906
RWRIL

ILLINOIS REGIONAL WEATHER ROUNDUP
NATIONAL WEATHER SERVICE CHICAGO/ROMEOVILLE IL
200 PM CDT THU SEP 18 2014

NOTE: "FAIR" INDICATES FEW OR NO CLOUDS BELOW 12,000 FEET WITH NO
SIGNIFICANT WEATHER AND/OR OBSTRUCTIONS TO VISIBILITY.

* THESE STATIONS ARE NOT UNDER NWS QUALITY CONTROL. THEY ALSO MAY NOT
  REPORT WEATHER SUCH AS PRECIPITATION OR FOG.

ILZ001-002-007-009-015-016-024-182000-
NORTHWEST ILLINOIS

CITY           SKY/WX    TMP DP  RH WIND       PRES   REMARKS
MOLINE         SUNNY     73  52  47 SE10      30.08F
STERLING*      SUNNY     72  54  53 E10       30.11F
SAVANNA*       MOSUNNY   73  49  42 SE7       30.11F
$$

ILZ003-004-008-010-011-017-018-182000-
NORTH CENTRAL ILLINOIS

CITY           SKY/WX    TMP DP  RH WIND       PRES   REMARKS
ROCKFORD       MOSUNNY   68  54  60 E8        30.15F
FREEPORT*      SUNNY     66  56  69 E9        30.15F
ROCHELLE*      MOSUNNY   69  52  54 NE8       30.13F
DE KALB*       MOSUNNY   65  53  63 NE3       30.14F
PERU*          SUNNY     71  50  47 SE8       30.11F
$$

ILZ005-006-012>014-019>023-182000-
NORTHEAST ILLINOIS

CITY           SKY/WX    TMP DP  RH WIND       PRES   REMARKS
CHICAGO-OHARE  MOSUNNY   68  54  60 NE10      30.13F
CHICAGO-MIDWAY MOSUNNY   71  54  54 N12       30.12F
AURORA         PTSUNNY   70  53  54 E10       30.13F
LANSING*       SUNNY     69  49  48 NE9G17    30.12F
JOLIET*        SUNNY     71  51  50 E6        30.12F
WAUKEGAN       CLOUDY    61  53  75 NE9       30.15F
DUPAGE AIRPORT MOSUNNY   70  53  54 NE9       30.13F
KANKAKEE*      SUNNY     70  49  48 E8        30.11F
WHEELING       MOSUNNY   66  55  67 NE9       30.16F
MORRIS*        SUNNY     72  53  50 CALM      30.11F
ROMEOVILLE*    MOSUNNY   70  51  49 SE5       30.12F
NORTHERLY ISL    N/A     64  57  78 N10         N/A
$$

LMZ740>746-182000-
SOUTHERN LAKE MICHIGAN

STATION/POSITION SKY/WX   TEMP    WIND        PRES    VSBY  WAVE
                          AIR SEA DIR/SP/G                  HT/PER
                          (F)     (DEG/KT/KT) (MB)    (MI)  (FT/S)
SOUTHERN BUOY              62 64  280/  4/  6 1021.2F         3/ 6
WAUKEGAN HARBOR            58      20/ 15/ 16   N/A
HARRISON CRIB              61     360/ 11/ 12   N/A
BURNHAM HARBOR             65      30/  9/ 11   N/A
CALUMET HARBOR             64      30/  7/  9 1019.4F
MICHIGAN CITY              63     340/ 13/ 14   N/A
MICHIGAN CITY 6N           63 65   10/ 10/ 12   N/A           1/ 2
ST. JOSEPH                 63 67  350/ 10/ 12   N/A           1/ 2
$$

ILZ025>027-034>036-040-047-049-050-058-095>099-182000-
WEST-CENTRAL ILLINOIS

CITY           SKY/WX    TMP DP  RH WIND       PRES   REMARKS
QUINCY         MOSUNNY   72  53  51 SE9G18    30.06F
GALESBURG*     SUNNY     75  55  48 E7        30.09F
MACOMB*        SUNNY     73  51  46 E10       30.10F
JACKSONVILLE*  SUNNY     76  53  44 E9        30.07F
PITTSFIELD*    PTSUNNY   74  53  47 E8        30.07F
$$

ILZ028>032-037-038-041>044-048-051>054-059>061-182000-
CENTRAL ILLINOIS

CITY           SKY/WX    TMP DP  RH WIND       PRES   REMARKS
PONTIAC        SUNNY     73  46  38 E8        30.10F
DECATUR        SUNNY     74  50  42 VRB3      30.08F
PEORIA         SUNNY     75  50  41 E10       30.09F
LACON*         SUNNY     72  50  45 E5        30.09F
LINCOLN*       SUNNY     75  47  37 NE7       30.05F
SPRINGFIELD    SUNNY     75  51  43 E7        30.07F
TAYLORVILLE    SUNNY     73  50  43 E7        30.06F
$$

ILZ033-039-045-046-055>057-062-063-182000-
EAST-CENTRAL ILLINOIS

CITY           SKY/WX    TMP DP  RH WIND       PRES   REMARKS
CHAMPAIGN      SUNNY     72  48  42 NE10      30.09F
DANVILLE*      SUNNY     72  44  37 E8        30.07F
RANTOUL*       SUNNY     72  43  34 NE5       30.10F
MATTOON        SUNNY     72  49  44 NE8       30.07F
PARIS*         SUNNY     72  46  39 CALM      30.09F
$$

ILZ079-100>102-182000-
SOUTHWEST ILLINOIS

CITY           SKY/WX    TMP DP  RH WIND       PRES   REMARKS
ALTON          MOSUNNY   70  54  56 E7        30.06
BELLEVILLE     MOSUNNY   74  56  52 NE10      30.04F
CAHOKIA*         N/A     74  56  53 E8        30.04F
SPARTA*        CLOUDY    71  53  52 E9        30.05F
$$

ILZ064>066-069>071-074>076-080>082-084>086-088>090-092>094-182000-
SOUTH-CENTRAL ILLINOIS

CITY           SKY/WX    TMP DP  RH WIND       PRES   REMARKS
CARBONDALE     MOSUNNY   73  58  59 E8        30.03F
CAIRO*         PTSUNNY   77  60  55 E6        30.01F
EFFINGHAM*     MOSUNNY   74  48  40 E8        30.07F
MARION         MOSUNNY   75  57  53 NE6       30.04F
MT. VERNON     SUNNY     72  55  56 NE8       30.06F
CENTRALIA*     SUNNY     73  53  49 E6        30.05F
SALEM*         MOSUNNY   74  57  55 E7        30.06F
METROPOLIS*    PTSUNNY   76  58  52 E5        30.01F
$$

ILZ067-068-072-073-078-083-087-091-182000-
SOUTHEAST ILLINOIS

CITY           SKY/WX    TMP DP  RH WIND       PRES   REMARKS
LAWRENCEVILLE  SUNNY     73  53  49 E10       30.06F
FLORA*         SUNNY     73  51  46 NE7       30.06F
FAIRFIELD*     SUNNY    N/A N/A N/A E3        30.05F
HARRISBURG*    MOSUNNY   74  54  50 E6        30.04F
ROBINSON*      SUNNY     75  56  51 E7        30.07F
CARMI*         MOSUNNY   76  53  45 NE9       30.04F
$$

ABBREVIATIONS USED IN REMARKS
   TC - TEMPERATURE IN CELSIUS
  WCI - WIND CHILL INDEX
   HX - HEAT INDEX
  VSB - VISIBILITY
$$




USA.gov is the U.S. government's official web portal to all federal, state and local government web resources and services.